[[{"header":{"parameterUnit":"m.s-1","parameterCategory":1,"la1":30.2991,"la2":30.254,"lo1":-89.0895,"lo2":-89.0444,"dy":0.0017,"dx":0.0017,"nx":28,"ny":28,"refTime":"2023-07-28T03:00:00:Z","depth":0,"parameterNumber":2,"parameterNumberName":"U-component_of_WINDS"},"data":[0,0,0,0,0,0,0,0,0,0,0,0,0,0,0,0,0,0,0,0,0,0,0,0,0,0,0,0,0,0,0,0,0,0,0,0,0,0,0,0,0,0,0,0,0,0,0,0,0,0,0,0,0,0,0,0,0,0,0.2324,0.2326,0,0.2514,0.2516,0.2518,0.2601,0.2601,0.26,0.26,0.2798,0.2803,0.2809,0,0,0,0,0,0,0,0,0,0,0,0,0,0.2036,0.204,0.2324,0.2327,0.2329,0.2513,0.2516,0.2519,0.2601,0.2601,0.26,0.26,0.2796,0.2803,0.2809,0,0,0,0,0,0,0,0,0,0,0,0,0,0.2187,0.2042,0.2324,0.2392,0.24,0.2513,0.2516,0.2519,0.2601,0.2601,0.26,0.26,0.2794,0.2802,0.281,0.287,0,0,0.2835,0.2839,0,0,0,0,0,0,0,0,0.2178,0.2197,0.238,0.2388,0.2397,0.2533,0.2487,0.2637,0.2601,0.2525,0.26,0.26,0.271,0.2726,0.2762,0.2879,0.2888,0.2836,0.2841,0.2845,0.2847,0,0,0,0,0,0,0,0.2167,0.2189,0.2399,0.2382,0.2393,0.2414,0.2435,0.2516,0.2618,0.2532,0.2538,0.2559,0.2715,0.2754,0.2767,0.2891,0.2836,0.2843,0.2848,0.2852,0.3064,0.3065,0,0,0,0,0,0,0.2145,0.218,0.2393,0.2405,0.2284,0.2419,0.2443,0.249,0.2617,0.2636,0.2559,0.2562,0.274,0.2758,0.2775,0.2852,0.2845,0.2852,0.2857,0.3064,0.3065,0.3065,0,0,0,0,0,0,0.2139,0.2164,0.2386,0.2294,0.2324,0.2425,0.2477,0.2494,0.2533,0.2638,0.2657,0.258,0.274,0.2763,0.2845,0.286,0.2856,0.2864,0.3063,0.3064,0.3065,0.3008,0,0,0,0,0,0,0.213,0.2161,0.2184,0.2294,0.2329,0.2452,0.2478,0.2498,0.2547,0.2552,0.2663,0.2681,0.2742,0.2832,0.2853,0.2872,0.287,0.3062,0.3063,0.3065,0.3009,0.3007,0.3005,0,0,0,0,0,0.212,0.2162,0.2185,0.221,0.236,0.2453,0.2473,0.2541,0.2547,0.2572,0.2639,0.2677,0.2855,0.284,0.2864,0.2885,0.3062,0.3063,0.3065,0.301,0.3007,0.3005,0,0,0,0,0,0,0.2053,0.2178,0.2205,0.2284,0.2357,0.2467,0.25,0.2537,0.261,0.2613,0.2696,0.272,0.2794,0.2848,0.2829,0.2949,0.2961,0.2968,0.2911,0.291,0.2908,0.2894,0.2877,0,0,0,0,0,0.2047,0.2111,0.2217,0.2276,0.2311,0.2399,0.2442,0.2488,0.2568,0.2599,0.2673,0.2749,0.2822,0.2869,0.2942,0.3017,0.3042,0.3043,0.3041,0.3039,0.3044,0.3086,0.3088,0.307,0.307,0.307,0,0,0.2036,0.2112,0.2148,0.2265,0.2327,0.2392,0.2425,0.2492,0.2541,0.261,0.2692,0.2748,0.2839,0.2916,0.2955,0.2964,0.3054,0.3041,0.3038,0.3045,0.3088,0.309,0.3091,0.3071,0.3071,0.3071,0,0,0.205,0.2114,0.217,0.2231,0.2323,0.2381,0.2394,0.2498,0.2537,0.262,0.2672,0.2732,0.2856,0.2918,0.2966,0.3,0.3037,0.3021,0.3012,0.3052,0.3054,0.3055,0.3067,0.3071,0.3026,0.3026,0.3026,0,0.2025,0.2125,0.2194,0.2259,0.2308,0.2371,0.2428,0.2484,0.2596,0.2629,0.2637,0.2793,0.2859,0.2951,0.2959,0.2996,0.3014,0.301,0.3048,0.305,0.3053,0.3065,0.3069,0.3023,0.3023,0.3024,0.3024,0,0.2089,0.2157,0.2191,0.2296,0.2349,0.241,0.2488,0.2534,0.2574,0.2631,0.2713,0.2794,0.2884,0.2909,0.295,0.3007,0.301,0.3031,0.3046,0.3051,0.3063,0.3069,0.3019,0.302,0.3021,0.3022,0,0,0.2069,0.2209,0.222,0.2268,0.2374,0.2428,0.249,0.2576,0.2614,0.2688,0.2743,0.2845,0.2865,0.2919,0.2968,0.3003,0.3023,0.302,0.3024,0.3018,0.3091,0.3074,0.3078,0.3048,0.3049,0.305,0.3083,0,0.2097,0.2211,0.2274,0.2362,0.2425,0.2484,0.2539,0.261,0.2663,0.2725,0.2785,0.2856,0.2877,0.291,0.2947,0.3013,0.3039,0.3011,0.3101,0.3103,0.3077,0.3085,0.3069,0.3096,0.3089,0.309,0.309,0,0.2146,0.2217,0.231,0.2407,0.2436,0.2484,0.2567,0.2625,0.2706,0.2743,0.2801,0.2849,0.2917,0.2924,0.302,0.2999,0.3039,0.3076,0.3079,0.3091,0.3097,0.3098,0.3107,0.3111,0.3099,0.3098,0.3098,0,0.212,0.224,0.2312,0.235,0.2465,0.2497,0.2546,0.2627,0.2674,0.2747,0.2778,0.2858,0.2902,0.2963,0.3031,0.303,0.3119,0.3132,0.3152,0.315,0.317,0.3168,0.3185,0.3193,0.3193,0.3193,0.3193,0,0.2146,0.2201,0.2302,0.2345,0.2408,0.248,0.2541,0.2595,0.2665,0.2721,0.2777,0.2828,0.2914,0.2976,0.3029,0.31,0.3119,0.3151,0.3165,0.3147,0.3143,0.3175,0.3175,0.3195,0.3194,0.3194,0.3194,0,0.2129,0.2199,0.228,0.2381,0.2408,0.245,0.2536,0.2581,0.2637,0.2706,0.2727,0.2814,0.289,0.2962,0.3064,0.31,0.317,0.3188,0.3142,0.315,0.3165,0.3163,0.3205,0.3214,0.3215,0.3215,0.3215,0,0.2141,0.2184,0.2289,0.233,0.2377,0.2442,0.249,0.2562,0.2609,0.2703,0.2736,0.2815,0.2882,0.3,0.3073,0.3151,0.3171,0.3181,0.3184,0.3163,0.3172,0.3169,0.3173,0.3179,0.3179,0.3178,0.3178,0,0.2155,0.2186,0.2252,0.233,0.2385,0.245,0.2517,0.2547,0.2631,0.2682,0.2758,0.281,0.2912,0.299,0.3075,0.3127,0.3167,0.3176,0.3185,0.3167,0.3139,0.3155,0.3138,0.3175,0.3176,0.3176,0.3176,0.3176,0.2153,0.2194,0.2273,0.2345,0.2402,0.2462,0.2509,0.2569,0.2634,0.2722,0.276,0.2838,0.2916,0.3035,0.3086,0.3147,0.3157,0.317,0.3173,0.3176,0.3171,0.3128,0.3163,0.3164,0.3164,0.3164,0.3164,0,0.2169,0.2223,0.2287,0.2378,0.2434,0.2464,0.2539,0.2584,0.2651,0.272,0.2784,0.2872,0.2947,0.3025,0.3104,0.3139,0.3159,0.3157,0.3156,0.3167,0.3158,0.3143,0.314,0.314,0.314,0.314,0.314,0.314,0.2185,0.2255,0.2295,0.2394,0.2448,0.2523,0.2563,0.2619,0.2675,0.2769,0.2831,0.2881,0.2954,0.3039,0.3109,0.313,0.3157,0.315,0.3176,0.3166,0.3168,0.317,0.3155,0.3155,0.3155,0.318,0.3181,0.3181]},{"header":{"parameterUnit":"m.s-1","parameterCategory":1,"la1":30.2991,"la2":30.254,"lo1":-89.0895,"lo2":-89.0444,"dy":0.0017,"dx":0.0017,"nx":28,"ny":28,"refTime":"2023-07-28T03:00:00:Z","depth":0,"parameterNumber":3,"parameterNumberName":"V-component_of_WINDS"},"data":[0,0,0,0,0,0,0,0,0,0,0,0,0,0,0,0,0,0,0,0,0,0,0,0,0,0,0,0,0,0,0,0,0,0,0,0,0,0,0,0,0,0,0,0,0,0,0,0,0,0,0,0,0,0,0,0,0,0,3.042,3.0419,0,3.0343,3.0342,3.0342,3.0335,3.0336,3.0337,3.0338,3.0252,3.0249,3.0246,0,0,0,0,0,0,0,0,0,0,0,0,0,3.0553,3.0551,3.042,3.0419,3.0418,3.0343,3.0342,3.0341,3.0335,3.0336,3.0337,3.0338,3.0253,3.0249,3.0246,0,0,0,0,0,0,0,0,0,0,0,0,0,3.0488,3.055,3.042,3.0406,3.0404,3.0344,3.0342,3.0341,3.0335,3.0336,3.0338,3.0339,3.0254,3.025,3.0245,3.0191,0,0,3.0231,3.0229,0,0,0,0,0,0,0,0,3.0491,3.0483,3.0409,3.0407,3.0405,3.035,3.0358,3.029,3.0335,3.0361,3.0338,3.0339,3.0283,3.0276,3.0259,3.0187,3.0183,3.0231,3.0228,3.0226,3.0224,0,0,0,0,0,0,0,3.0496,3.0486,3.0389,3.0408,3.0405,3.0401,3.0393,3.0345,3.0315,3.0359,3.0358,3.035,3.0282,3.0263,3.0257,3.0182,3.0231,3.0227,3.0224,3.0222,3.0062,3.006,0,0,0,0,0,0,3.0504,3.049,3.0392,3.0387,3.0452,3.0398,3.0389,3.0366,3.0316,3.031,3.0349,3.035,3.0271,3.0262,3.0254,3.0187,3.0226,3.0221,3.0219,3.0063,3.0061,3.006,0,0,0,0,0,0,3.0507,3.0495,3.0395,3.0438,3.0425,3.0394,3.0369,3.0364,3.0345,3.0309,3.0302,3.0335,3.0271,3.026,3.0207,3.0184,3.0219,3.0215,3.0065,3.0062,3.006,3.0053,0,0,0,0,0,0,3.0511,3.0497,3.0477,3.0438,3.0423,3.0352,3.0367,3.0362,3.0338,3.0339,3.0294,3.0288,3.0271,3.0214,3.0203,3.0178,3.0212,3.0067,3.0064,3.0061,3.0055,3.0051,3.0047,0,0,0,0,0,3.0516,3.0477,3.0476,3.0465,3.0399,3.035,3.0341,3.0325,3.0337,3.0316,3.0292,3.029,3.0189,3.0209,3.0196,3.0169,3.0068,3.0065,3.0061,3.0057,3.0051,3.0047,0,0,0,0,0,0,3.0511,3.0471,3.047,3.0418,3.0388,3.0349,3.0323,3.032,3.0284,3.0285,3.0264,3.0254,3.0202,3.018,3.0204,3.0114,3.0129,3.0123,3.013,3.0125,3.0121,3.0126,3.0208,0,0,0,0,0,3.0505,3.0471,3.0437,3.0394,3.0379,3.0354,3.0332,3.0322,3.0289,3.0275,3.0248,3.0214,3.0174,3.0148,3.011,3.0052,3.0042,3.0028,3.0024,3.0021,3.0015,2.9982,2.9975,3.0049,3.0049,3.0049,0,0,3.0489,3.0463,3.0443,3.0392,3.0368,3.0331,3.0343,3.0303,3.0276,3.0269,3.0218,3.0196,3.0156,3.0101,3.0075,3.0081,2.9993,3.0016,3.0014,3.001,2.9978,2.9971,2.9965,3.0046,3.0047,3.0047,0,0,3.0443,3.0421,3.0382,3.0358,3.0322,3.0306,3.0297,3.0259,3.0245,3.0194,3.0188,3.0154,3.0086,3.0058,3.0035,2.998,2.9976,2.9968,2.9946,2.9914,2.9908,2.9903,2.9882,2.9875,2.9963,2.9963,2.9963,0,3.0428,3.0375,3.0362,3.0324,3.0301,3.0296,3.0256,3.0232,3.0184,3.0168,3.0176,3.0092,3.0065,3.0003,2.9989,2.9971,2.9958,2.9972,2.9911,2.9905,2.99,2.988,2.9872,2.9962,2.9962,2.9962,2.9962,0,3.0358,3.0322,3.0295,3.0252,3.0226,3.0186,3.0165,3.014,3.0133,3.0115,3.0063,3.0031,2.9986,2.997,2.9961,2.9906,2.9911,2.9916,2.993,2.9893,2.9873,2.9865,2.9961,2.9961,2.9961,2.9961,0,0,3.0305,3.0257,3.0247,3.0228,3.0188,3.0158,3.0118,3.0077,3.0056,3.0023,2.9987,2.9931,2.9935,2.9909,2.9897,2.987,2.9827,2.9877,2.9876,2.9868,2.9763,2.9759,2.975,2.9825,2.9823,2.9822,2.9766,0,3.0254,3.0185,3.0173,3.0112,3.0077,3.0073,3.0037,3.0008,2.999,2.9957,2.9936,2.9896,2.9905,2.989,2.9862,2.9838,2.9805,2.9842,2.9789,2.9787,2.9798,2.974,2.9736,2.9685,2.9758,2.9757,2.9756,0,3.0184,3.0153,3.009,3.0055,3.004,3.0009,2.997,2.9939,2.9905,2.9894,2.9866,2.9858,2.9813,2.9831,2.9769,2.9795,2.9772,2.9757,2.9755,2.9748,2.9768,2.9731,2.9668,2.966,2.9744,2.9745,2.9746,0,3.0151,3.0093,3.0047,3.0031,2.999,2.9968,2.9949,2.9917,2.9893,2.9858,2.9842,2.9802,2.978,2.9748,2.9728,2.9743,2.9667,2.9683,2.9655,2.9655,2.9638,2.9639,2.9569,2.9625,2.9626,2.9626,2.9626,0,3.0094,3.0055,3.0032,3.0004,2.996,2.9945,2.9901,2.9882,2.9854,2.982,2.9813,2.9781,2.9758,2.9722,2.9706,2.9656,2.9646,2.9634,2.963,2.9634,2.9636,2.9618,2.9621,2.9624,2.9624,2.9624,2.9625,0,3.0049,3.0032,2.9982,2.9948,2.9939,2.9908,2.9877,2.9849,2.9832,2.979,2.9779,2.9751,2.9709,2.9687,2.9633,2.9622,2.9566,2.9564,2.9578,2.9576,2.9549,2.9551,2.9464,2.9451,2.9517,2.9517,2.9516,0,3.0013,2.9984,2.9948,2.9926,2.9908,2.9873,2.9849,2.9833,2.9809,2.9769,2.9744,2.9702,2.9668,2.96,2.9573,2.9532,2.9529,2.9501,2.9522,2.9527,2.9527,2.9528,2.9525,2.9497,2.9496,2.9496,2.9495,0,2.9951,2.9945,2.9913,2.9877,2.985,2.9821,2.9792,2.9774,2.9753,2.9725,2.9683,2.9657,2.9604,2.9561,2.9518,2.9496,2.9491,2.9489,2.948,2.9483,2.9492,2.9486,2.9567,2.9491,2.9491,2.9491,2.9492,2.9492,2.9909,2.9882,2.9853,2.9817,2.9795,2.9768,2.974,2.972,2.9686,2.9643,2.9635,2.9591,2.9557,2.9499,2.9476,2.944,2.9445,2.9432,2.9429,2.9425,2.9424,2.95,2.9432,2.9432,2.9432,2.9432,2.9432,0,2.9846,2.9827,2.9795,2.9756,2.9727,2.9729,2.9697,2.9672,2.9634,2.9604,2.9571,2.9523,2.9482,2.9453,2.9411,2.9387,2.9384,2.9376,2.9377,2.9372,2.9422,2.9433,2.938,2.938,2.938,2.938,2.938,2.938,2.9809,2.9765,2.9755,2.9698,2.9679,2.9638,2.9619,2.9594,2.957,2.9518,2.9485,2.9468,2.9438,2.9394,2.9356,2.9348,2.9332,2.9325,2.9317,2.9363,2.9369,2.9374,2.9385,2.9322,2.9322,2.927,2.9269,2.9269]}]]